#timestamp,LO_Frequency,Hit,StdDev 
1626742815.1,286046997.7,N
1626742816.0,286046997.7,N
1626742835.8,286046996.2,N
1626742855.7,286046998.0,N
1626742875.5,286046997.8,N
1626742895.3,286046995.0,Y
1626742915.2,286046997.9,P
1626742935.0,286046997.4,P
1626742935.9,286046997.4,P
1626742955.8,286046995.3,Y
1626742975.6,286046996.6,P
1626742995.5,286046995.3,P
1626743015.3,286046995.4,P
1626743035.1,286046996.9,N
1626743055.9,286046996.6,Y
1626743075.7,286046999.7,P
1626743095.6,286047000.7,N
1626743115.4,286047000.9,N
1626743135.2,286047001.5,N
1626743155.1,286047002.0,N
1626743156.0,286047002.0,N
1626743175.8,286047003.7,N
1626743195.6,286047004.8,N
1626743215.5,286047007.6,Y
1626743235.3,286047003.1,P
1626743255.2,286047002.7,N
1626743275.9,286047001.1,N
1626743295.7,286046997.0,Y
1626743315.6,286046993.3,P
1626743335.4,286046993.4,N
1626743355.2,286046994.8,N
1626743375.1,286046994.6,N
1626743376.0,286046994.6,N
1626743395.8,286046994.2,N
1626743415.7,286046993.9,N
1626743435.5,286046995.8,N
1626743455.3,286046995.8,N
1626743475.2,286046994.7,N
1626743495.0,286046992.0,Y
1626743495.9,286046992.0,P
1626743515.7,286046995.5,N
1626743535.6,286046996.2,N
1626743555.4,286046994.6,Y
1626743575.3,286046998.1,P
1626743595.1,286047001.2,N
1626743596.0,286047001.2,N
1626743615.8,286046998.1,N
1626743635.7,286047001.1,N
1626743655.5,286046998.2,N
1626743675.3,286047000.7,N
1626743695.2,286046999.3,N
1626743715.0,286046996.6,N
1626743715.9,286046996.6,N
1626743735.8,286046999.0,N
1626743755.6,286046998.9,N
1626743775.4,286046997.3,N
1626743795.3,286046997.5,N
1626743815.1,286046997.9,N
1626743835.8,286046995.5,N
1626743855.7,286046995.3,N
1626743875.5,286046997.6,N
1626743895.4,286046997.5,N
1626743915.2,286046996.9,N
1626743935.0,286046997.2,N
1626743935.9,286046997.2,N
1626743955.8,286046996.6,N
1626743975.6,286046995.1,N
1626743995.4,286046997.9,N
1626744015.3,286046995.9,N
1626744035.1,286046996.2,N
1626744055.9,286046996.4,N
1626744075.7,286046996.0,N
1626744095.5,286046993.5,Y
1626744115.4,286046996.1,P
1626744135.2,286046997.8,N
1626744155.0,286046995.1,P
1626744156.0,286046995.1,Y
1626744175.8,286047002.4,P
1626744195.6,286047001.3,N
1626744215.5,286047002.3,N
1626744235.3,286047000.3,N
1626744255.1,286047002.7,N
1626744275.9,286047003.4,N
1626744295.7,286047003.3,N
1626744315.6,286047003.6,N
1626744335.4,286047005.8,N
1626744355.2,286047006.8,N
1626744375.1,286047008.0,Y
1626744376.0,286047008.0,P
1626744395.8,286047007.5,N
1626744415.6,286047004.9,N
1626744435.5,286047002.9,N
1626744455.3,286047006.0,N
1626744475.2,286047006.0,N
1626744495.9,286047004.2,N
1626744515.7,286047001.6,N
1626744535.6,286047000.6,N
1626744555.4,286046998.2,N
1626744575.2,286047000.1,N
1626744595.1,286046999.8,N
1626744596.0,286046999.8,N
1626744615.8,286047002.7,N
1626744635.7,286046999.8,N
1626744655.5,286047002.5,N
1626744675.3,286047003.9,N
1626744695.2,286047004.2,N
1626744715.0,286047001.3,N
1626744715.9,286047001.3,N
1626744735.7,286047002.2,N
1626744755.6,286047001.6,N
1626744775.4,286047001.9,N
1626744795.3,286047002.2,N
1626744815.1,286047002.2,N
1626744816.0,286047002.2,N
1626744835.8,286047002.3,N
1626744855.7,286047000.2,N
1626744875.5,286047000.9,N
1626744895.3,286046999.5,N
1626744915.2,286046996.5,N
1626744935.0,286046997.3,N
1626744935.9,286046997.3,N
1626744955.8,286046997.7,N
1626744975.6,286046996.7,N
1626744995.4,286046997.1,N
1626745015.3,286046997.4,N
1626745035.1,286046995.5,N
1626745055.8,286046995.2,N
1626745075.7,286046996.4,N
1626745095.5,286046995.2,N
1626745115.4,286046996.0,N
1626745135.2,286046995.7,N
1626745155.0,286046993.3,N
1626745155.9,286046993.3,N
1626745175.8,286046995.7,N
1626745195.6,286046997.8,N
1626745215.5,286046998.8,N
1626745235.3,286046998.7,N
1626745255.1,286047000.9,N
1626745275.9,286047000.2,N
1626745295.7,286047003.8,N
1626745315.5,286047003.0,N
1626745335.4,286047003.4,N
1626745355.2,286047007.3,N
1626745375.1,286047009.2,N
1626745376.0,286047009.2,N
1626745395.8,286047009.2,N
1626745415.6,286047010.7,N
1626745435.5,286047010.6,N
1626745455.3,286047010.1,N
1626745475.1,286047012.2,N
1626745495.9,286047013.3,N
1626745515.7,286047017.2,N
1626745535.6,286047015.6,N
1626745555.4,286047013.3,N
1626745575.2,286047011.5,N
1626745595.1,286047013.0,N
1626745596.0,286047013.0,N
1626745615.8,286047010.9,N
1626745635.6,286047011.4,N
1626745655.5,286047011.5,N
1626745675.3,286047012.2,N
1626745695.2,286047011.9,N
1626745715.9,286047010.1,N
1626745735.7,286047009.4,N
1626745755.6,286047009.0,N
1626745775.4,286047008.2,N
1626745795.2,286047007.7,N
1626745815.1,286047010.2,N
1626745816.0,286047010.2,N
1626745835.8,286047009.3,N
1626745855.7,286047010.0,Y
1626745875.5,286047001.2,P
1626745895.3,286046998.6,N
1626745915.2,286047000.7,N
1626745935.0,286047000.6,N
1626745935.9,286047000.6,N
1626745955.7,286047000.4,N
1626745975.6,286047000.0,N
1626745995.4,286046998.8,N
1626746015.3,286046998.7,N
1626746035.1,286047001.2,N
1626746036.0,286047001.2,N
1626746055.8,286047000.7,N
1626746075.7,286047000.8,N
1626746095.5,286046998.8,N
1626746115.3,286046999.0,N
1626746135.2,286046998.3,N
1626746155.0,286046998.1,N
1626746155.9,286046998.1,N
1626746175.8,286046999.8,N
1626746195.6,286047003.9,N
1626746215.4,286047004.1,N
1626746235.3,286047001.6,N
1626746255.1,286047004.4,N
1626746275.8,286047002.5,N
1626746295.7,286047002.8,N
1626746315.5,286046999.8,N
1626746335.4,286046999.7,N
1626746355.2,286046999.9,N
1626746375.0,286046999.7,N
1626746375.9,286046999.7,N
1626746395.8,286046998.9,N
